Location: Helsinki
(60.1699°N, 24.9384°E)
Time: 23:25:57
(UTC+02:00)

Altair - Pass Details

Date: 30 October 2020
Orbit: 1502 x 1682 km, 47.2° (Epoch: 25 November)

Event Time Altitude Azimuth Distance (km) Brightness Sun altitude
Rises 11:14:54 0° 277° (W) 4,753 9.9 15.2°
Reaches altitude 10° 11:19:00 10° 262° (W) 3,797 9.6 15.3°
Maximum altitude 11:25:19 20° 220° (SW) 3,123 9.9 15.4°
Drops below altitude 10° 11:31:45 10° 179° (S) 3,881 12.2 15.6°
Sets 11:36:02 0° 163° (SSE) 4,890 11.9 15.6°
